Vertical_Velocity
-2 0 -1 1 -2 -1 -1 -0 -1 2 2 -0 -1 1 -0 -0 -2 -0 1 0 -3 0 -1 -2 -0 -1 1 1 -3 -6 2 -3 9 7 -5 -5 -6 -1 4 -0 -5 -3 -2 -1
-1 0 2 0 1 -2 -1 -0 -2 0 -2 -0 0 -0 1 1 1 -2 -1 -0 1 -2 -1 1 0 -1 -2 -1 -1 -2 -4 -3 -1 2 12 -7 -6 -4 -0 1 -2 -3 -8 -0
-0 1 -2 0 1 1 -1 2 -1 -3 -1 -1 -1 -0 -1 -0 1 0 -0 -1 -0 2 0 -2 -1 1 0 1 -3 -1 -2 -4 -3 -3 -3 1 6 7 4 -7 -7 7 -5 1
1 0 1 -1 -1 -0 1 -2 2 1 -1 -2 -1 2 1 1 -1 0 1 1 1 -1 -1 -1 -1 -2 0 0 0 -1 -3 -1 -4 -5 -4 -3 -1 -1 -4 -1 6 -7 13 -1
0 0 -1 2 0 -3 -2 1 -2 -1 0 0 -1 -2 -2 0 2 2 -1 -2 -2 -1 3 0 2 -0 -3 -1 2 -0 1 0 -3 -1 -1 -3 -4 -6 -3 -0 -1 -1 -6 2
-2 -1 -1 -1 -0 -1 -1 1 1 1 -0 1 1 -2 -1 -0 -0 -1 2 1 0 -1 -1 -2 -3 -1 -0 -0 -0 -1 0 -1 0 0 -2 -3 -0 5 -2 0 0 -1 -3 3
1 1 -1 -1 1 0 -1 -0 1 1 2 -3 -2 2 1 -0 0 -2 -3 1 0 1 0 0 0 0 -0 -2 -2 -1 0 -2 -2 2 -1 -2 1 -2 -3 -1 -2 1 -0 -2
2 1 4 -0 1 -2 -1 -2 -2 -1 2 2 -1 -2 -0 -1 -2 1 0 -3 1 -0 1 0 -1 -0 2 2 -1 -2 -1 -1 -2 -6 -1 -0 6 -0 -2 -4 2 -2 1 -0
1 2 1 1 -0 -0 2 0 -2 -1 2 5 -0 -0 -1 2 1 -0 -1 1 0 -1 -0 3 -0 -0 1 0 4 3 -0 -3 -2 -0 -6 -5 2 2 1 -0 1 3 3 1
0 1 3 4 2 -0 -0 -1 -2 -6 -1 8 -1 3 2 -1 -3 1 1 -2 -0 -1 1 -4 -2 4 -1 -4 -2 2 -1 -2 0 -5 -6 2 8 -3 -0 -1 5 -3 0 -1
4 1 0 2 1 1 2 3 1 -2 -4 4 0 0 -3 0 -0 -5 7 -2 2 -0 -3 -2 3 -2 -1 -4 1 -0 -1 -5 3 -3 -6 2 2 1 0 -3 -2 3 1 -0
1 2 2 1 1 -0 -1 11 -7 -2 -5 10 -5 1 -0 4 0 -6 4 -2 1 -9 0 -1 -4 -1 3 -3 -1 -4 -3 -2 -2 -4 5 -2 -0 2 -1 -0 1 -1 2 2
-1 -0 1 1 2 -2 -1 4 2 -8 -3 0 3 5 1 -2 -0 -3 -2 4 1 2 -3 -3 -5 -5 5 -0 1 0 1 -2 -3 -3 6 1 -2 -5 -0 -0 1 4 2 -1
2 -1 -0 -0 -1 -0 -4 -2 -0 -4 -7 -13 14 -8 -2 -0 2 -1 -1 6 -2 -2 -3 -6 -2 8 -0 1 -7 -4 11 4 2 1 5 -11 -0 1 -4 -2 -1 3 0 3
-2 -3 -1 -2 3 1 -7 -5 0 -2 -5 -6 -0 -4 2 -5 -5 -4 1 -1 1 3 -2 -6 1 -1 3 -3 -6 -1 16 9 -2 -3 3 -3 5 -1 -7 4 -2 -0 -1 1
2 -1 2 -0 2 -5 3 -14 -4 3 4 -16 -5 7 3 -8 -2 0 -1 -1 1 -1 -4 -1 -6 9 3 -18 -12 10 12 8 4 -3 -4 -3 4 5 2 -4 -0 -3 0 -1
-1 4 1 4 -2 3 1 -5 1 10 6 3 -4 -14 7 5 -0 -0 -4 -1 0 -3 -1 -4 -5 10 -6 -14 -12 15 10 3 7 1 -2 -4 2 3 -4 1 -1 -1 -2 0
-1 5 2 7 -3 -8 2 7 7 9 9 13 6 -28 -7 20 2 -1 6 -1 5 3 -2 -10 2 -6 -2 -35 18 22 0 -3 -0 -2 2 -5 5 3 -1 -1 0 -1 2 -1
3 11 7 11 -4 -2 2 14 2 4 14 13 -1 -7 -14 -4 6 6 3 8 7 4 -2 3 3 -3 -31 23 13 1 3 -3 0 -3 0 -5 1 4 3 2 -1 -1 1 -1
3 7 3 7 -3 14 13 11 5 -0 0 6 -10 3 -5 3 4 8 14 10 7 -8 1 8 -5 -21 6 29 1 -5 1 2 3 -2 1 -1 -1 0 0 1 0 -1 -1 -1
5 5 1 5 6 8 11 7 4 3 -2 -3 5 7 4 11 7 11 16 2 8 2 -5 9 -17 -9 38 2 -2 6 -5 -1 -0 2 4 -1 3 -0 1 1 0 -0 -0 -2
-6 5 3 13 3 5 5 7 5 -8 -4 -12 7 11 16 5 13 9 6 6 0 -0 -4 3 -16 22 9 11 7 -5 -3 -2 0 3 1 -2 -1 -0 2 -0 -1 -2 -1 -1
6 1 6 6 12 2 0 -12 -12 -0 8 1 -2 2 4 6 11 10 6 2 1 3 -5 -11 -4 6 4 -3 1 0 1 -2 -2 1 -1 1 0 -4 0 1 -1 2 2 -4
7 -3 -3 9 10 4 -7 -8 3 4 16 3 -8 -1 -5 4 5 4 -1 8 11 2 -6 -1 6 -5 -7 -6 -1 5 -5 -3 -4 5 3 -0 2 2 1 -1 -0 -3 0 -2
3 2 -0 3 2 5 0 -0 9 4 -3 -2 2 4 13 13 4 4 3 0 -7 -5 1 0 1 -5 -4 -0 -0 3 4 1 -1 3 2 -0 1 2 2 1 -0 -4 -6 -1
-2 2 2 -0 1 -2 1 2 5 5 2 -0 2 6 -2 0 5 -2 -3 -1 9 12 -2 -8 -6 -2 -2 -0 1 2 1 0 -1 2 1 1 2 -0 -3 0 4 -2 -6 -0
0 4 4 0 3 3 9 5 4 1 2 2 -0 2 6 -5 -3 7 13 5 -4 -10 -5 -2 -2 -3 -0 1 3 4 -1 -3 2 -0 2 2 -1 -5 -2 2 9 -6 -3 -4
Height
5762 5762 5762 5760 5759 5758 5756 5753 5750 5746 5743 5742 5739 5737 5734 5731 5728 5724 5722 5720 5717 5715 5714 5712 5711 5711 5710 5711 5712 5711 5711 5710 5710 5717 5722 5727 5730 5734 5738 5743 5748 5750 5753 5758
5757 5756 5756 5755 5754 5753 5752 5751 5749 5746 5743 5740 5738 5736 5734 5732 5730 5728 5725 5722 5720 5718 5717 5716 5714 5714 5714 5714 5714 5716 5717 5717 5717 5715 5721 5728 5731 5734 5738 5741 5743 5746 5749 5754
5751 5749 5749 5750 5749 5748 5746 5746 5746 5744 5742 5739 5737 5735 5733 5732 5730 5728 5726 5724 5722 5720 5719 5717 5717 5716 5716 5716 5717 5717 5719 5720 5721 5723 5724 5725 5726 5728 5732 5735 5738 5741 5743 5745
5743 5743 5741 5740 5742 5743 5742 5740 5740 5740 5739 5737 5735 5733 5732 5730 5729 5727 5726 5725 5723 5722 5720 5718 5717 5716 5715 5716 5717 5717 5719 5720 5721 5722 5723 5725 5727 5728 5729 5730 5733 5732 5736 5736
5733 5733 5733 5733 5732 5734 5735 5735 5734 5733 5733 5732 5732 5731 5729 5728 5726 5725 5724 5723 5722 5721 5721 5720 5718 5718 5717 5715 5714 5715 5716 5718 5719 5720 5720 5720 5722 5724 5726 5727 5728 5728 5729 5730
5722 5723 5724 5724 5724 5724 5725 5726 5726 5726 5726 5726 5726 5725 5725 5724 5723 5722 5720 5720 5719 5719 5719 5717 5717 5716 5715 5715 5715 5713 5713 5713 5713 5715 5715 5716 5719 5718 5717 5719 5721 5720 5719 5722
5710 5711 5712 5714 5714 5714 5713 5715 5716 5717 5719 5717 5718 5718 5717 5717 5719 5719 5717 5715 5714 5714 5713 5713 5712 5711 5712 5711 5710 5710 5709 5709 5709 5709 5708 5710 5713 5712 5710 5710 5710 5710 5709 5708
5696 5698 5698 5700 5702 5702 5703 5703 5704 5705 5707 5709 5709 5708 5709 5709 5709 5710 5711 5710 5709 5708 5706 5707 5707 5706 5706 5705 5706 5705 5704 5703 5703 5702 5703 5704 5706 5706 5705 5704 5704 5701 5701 5699
5681 5683 5686 5687 5688 5689 5690 5691 5691 5692 5694 5697 5698 5698 5699 5699 5700 5700 5702 5700 5700 5700 5699 5698 5698 5698 5698 5698 5698 5698 5697 5696 5696 5695 5694 5695 5698 5697 5695 5693 5695 5693 5692 5692
5667 5668 5669 5672 5675 5677 5676 5678 5679 5680 5681 5684 5685 5687 5688 5689 5688 5689 5690 5691 5690 5692 5691 5690 5689 5689 5690 5690 5690 5690 5688 5687 5687 5686 5685 5686 5689 5686 5685 5684 5687 5682 5681 5680
5653 5655 5656 5658 5658 5660 5663 5664 5665 5667 5668 5671 5672 5672 5673 5675 5676 5676 5679 5678 5679 5679 5679 5680 5680 5678 5680 5680 5680 5680 5679 5678 5679 5677 5675 5677 5678 5676 5675 5673 5671 5671 5671 5669
5638 5640 5642 5643 5644 5646 5647 5650 5648 5650 5654 5657 5656 5658 5660 5661 5661 5662 5664 5665 5666 5666 5667 5667 5666 5667 5667 5668 5669 5669 5669 5668 5668 5668 5668 5666 5664 5664 5663 5662 5661 5659 5658 5657
5622 5625 5627 5629 5630 5630 5632 5635 5635 5635 5637 5640 5641 5642 5642 5645 5645 5646 5649 5650 5651 5651 5651 5652 5652 5653 5655 5655 5656 5656 5656 5655 5655 5655 5657 5654 5652 5651 5650 5649 5648 5647 5646 5644
5607 5610 5612 5614 5614 5615 5617 5620 5618 5619 5621 5624 5628 5626 5627 5627 5629 5630 5632 5634 5633 5634 5635 5636 5637 5638 5639 5641 5642 5643 5643 5642 5642 5641 5641 5637 5638 5637 5636 5635 5634 5633 5631 5629
5592 5594 5597 5599 5600 5600 5600 5604 5607 5606 5606 5611 5613 5612 5613 5614 5614 5615 5616 5617 5618 5618 5619 5621 5623 5624 5624 5626 5627 5630 5631 5629 5626 5625 5624 5623 5625 5623 5622 5622 5620 5618 5616 5614
5569 5575 5578 5580 5582 5583 5585 5586 5593 5593 5592 5592 5596 5601 5601 5600 5601 5603 5604 5603 5602 5602 5602 5605 5606 5609 5610 5609 5613 5617 5616 5615 5610 5609 5609 5607 5607 5608 5607 5606 5605 5603 5601 5599
5546 5552 5556 5559 5561 5567 5569 5573 5579 5579 5577 5576 5574 5581 5589 5588 5587 5590 5590 5590 5589 5589 5590 5591 5593 5595 5592 5595 5600 5601 5602 5599 5596 5594 5592 5592 5592 5591 5590 5589 5587 5585 5583 5581
5524 5529 5532 5536 5537 5545 5552 5557 5560 5562 5562 5561 5557 5562 5574 5572 5573 5574 5574 5573 5573 5573 5574 5577 5579 5579 5579 5583 5586 5588 5584 5582 5581 5579 5578 5577 5576 5575 5573 5571 5570 5568 5565 5562
5498 5505 5508 5512 5513 5524 5533 5536 5536 5542 5545 5540 5540 5545 5556 5556 5558 5558 5557 5556 5555 5556 5557 5559 5561 5564 5566 5572 5570 5568 5568 5566 5565 5563 5562 5560 5559 5557 5555 5553 5551 5549 5547 5545
5474 5480 5484 5488 5492 5502 5507 5508 5512 5513 5519 5519 5526 5533 5538 5542 5544 5543 5543 5540 5540 5537 5542 5541 5542 5550 5552 5553 5552 5549 5549 5547 5547 5546 5545 5543 5542 5540 5538 5535 5532 5531 5529 5526
5453 5459 5464 5471 5476 5481 5485 5487 5488 5490 5494 5503 5514 5518 5522 5525 5527 5527 5525 5521 5521 5520 5524 5524 5526 5535 5536 5532 5531 5531 5529 5530 5529 5528 5526 5524 5523 5521 5519 5516 5514 5512 5510 5508
5437 5443 5447 5454 5456 5462 5467 5470 5472 5475 5480 5487 5496 5501 5503 5507 5509 5507 5507 5506 5505 5502 5505 5507 5512 5522 5515 5513 5511 5511 5512 5512 5512 5510 5509 5507 5506 5504 5502 5500 5497 5495 5493 5491
5423 5428 5432 5436 5440 5445 5449 5454 5463 5465 5468 5474 5479 5483 5487 5488 5490 5488 5489 5488 5488 5488 5489 5492 5501 5500 5498 5496 5494 5494 5493 5493 5493 5492 5490 5489 5487 5486 5485 5483 5481 5480 5477 5475
5410 5414 5420 5423 5427 5432 5439 5448 5454 5456 5458 5462 5466 5469 5472 5473 5474 5473 5475 5474 5474 5474 5477 5482 5483 5480 5481 5481 5481 5479 5478 5477 5477 5475 5472 5472 5472 5470 5468 5467 5465 5464 5462 5460
5401 5406 5409 5413 5419 5424 5429 5435 5441 5446 5450 5454 5457 5459 5461 5461 5461 5462 5462 5461 5461 5463 5464 5464 5464 5466 5468 5469 5468 5466 5463 5462 5461 5461 5459 5458 5457 5455 5454 5453 5451 5449 5448 5446
5398 5400 5403 5407 5412 5417 5422 5427 5430 5434 5437 5439 5443 5445 5447 5448 5449 5451 5450 5451 5452 5450 5448 5451 5454 5455 5455 5455 5454 5451 5449 5448 5448 5447 5446 5444 5443 5442 5442 5441 5438 5435 5433 5432
5395 5397 5399 5403 5407 5410 5414 5418 5420 5423 5426 5429 5431 5434 5434 5435 5437 5439 5437 5437 5436 5437 5440 5441 5441 5442 5442 5441 5439 5438 5437 5437 5436 5435 5433 5432 5430 5430 5429 5427 5424 5420 5419 5416